Skip Page Navigation
NASA JPL Caltech
NASA Logo - Jet Propulsion Laboratory + View the NASA Portal
+ Near-Earth Object (NEO) Program
Search JPL
JPL Home Earth Solar System Stars & Galaxies Technology
JPL Solar System Dynamics
BODIES ORBITS EPHEMERIDES TOOLS PHYSICAL DATA DISCOVERY FAQ SITE MAP
JPL Small-Body Database Browser
Search: [ help ]  
46596 Tobata (1993 BD)
Classification: Main-belt Asteroid          SPK-ID: 2046596
Ephemeris | Orbit Diagram | Orbital Elements | Physical Parameters | Discovery Circumstances ]

[ hide orbit diagram ]
Orbit Diagram
Note: Make sure you have Java enabled on your browser to see the applet. This applet is provided as a 3D orbit visualization tool. The applet was implemented using 2-body methods, and hence should not be used for determining accurate long-term trajectories (over several years or decades) or planetary encounter circumstances. For accurate long-term ephemerides, please instead use our Horizons system.
Orbit Viewer

Additional Notes: the orbits shown in the applet are color coded. The planets are white lines, and the asteroid/comet is a blue line. The bright white line indicates the portion of the orbit that is above the ecliptic plane, and the darker portion is below the ecliptic plane. Likewise for the asteroid/comet orbit, the light blue indicates the portion above the ecliptic plane, and the dark blue the portion below the ecliptic plane.

Orbit Viewer applet originally written and kindly provided by Osamu Ajiki (AstroArts), and further modified by Ron Baalke (JPL).


Orbital Elements at Epoch 2456400.5 (2013-Apr-18.0) TDB
Reference: MPO244571 (heliocentric ecliptic J2000)
 Element Value Uncertainty (1-sigma)   Units 
e 0.1387954 n/a  
a 2.3285801 n/a AU
q 2.0053839 n/a AU
i 6.94709 n/a deg
node 112.87064 n/a deg
peri 7.79680 n/a deg
M 257.98082 n/a deg
tp 2456768.3023614
(2014-Apr-20.80236140)
n/a JED
period 1297.8819288
3.55
n/a
n/a
d
yr
n 0.27737500 n/a deg/d
Q 2.6517763 n/a AU
  Orbit Determination Parameters
   # obs. used (total)      630  
   first obs. used      1993-??-??  
   last obs. used      2012-11-02  
   # oppositions      11  
   planetary ephem.      DE403  
   condition code      0  
   fit RMS      0.57  
   data source      MPC:mpn  
   producer      MPCLINUX  

Additional Information
 T_jup = 3.550 

Ephemeris | Orbit Diagram | Orbital Elements | Physical Parameters | Discovery Circumstances ]

Physical Parameter Table
Parameter Symbol Value Units Sigma Reference Notes
absolute magnitude H 14.7 mag n/a MPO244571  

46596 Tobata           Discovered 1993 Jan. 16 by T. Seki at Geisei.
Tobata, a ward of Kita-Kyushu City in Fukuoka prefecture, is the location of the Faculty of Engineering campus of the Kyushu Institute of Technology.
NOTE: some special characters may not display properly (any characters within {} are an attempt to place the proper accent above a character)
Reference: 20080122/MPCPages.arcLast Updated: 2008-03-05
Ephemeris | Orbit Diagram | Orbital Elements | Physical Parameters | Discovery Circumstances ]
ABOUT SSD CREDITS/AWARDS PRIVACY/COPYRIGHT GLOSSARY LINKS
FirstGov 2013-Jun-20 03:06 UT
(server date/time)  
NASA Home Page
Site Manager:   Donald K. Yeomans
Webmaster  Alan B. Chamberlin